Showing default

QIANFAN-1, 60379

Orbit data source: Space-Track

QIANFAN-1, 60379 is a Chinese payload satellite in LEO that was launched on Tue, 06 Aug 2024 UTC via a CHANG ZHENG 6A launch vehicle from the Taiyaun Space Center, China (TSC). Payloads include a variety of satellites, spacecraft, and rockets equipped with specific instruments for various scientific and technological missions. These include communications satellites like Starlink; space stations such as the ISS; scientific satellites like the Hubble; Earth observation satellites from companies like Planet Labs, Umbra, and HawkEye 360; GPS; miniature CubeSats for education and research; and military/defense satellites.

Loading next visibility...
QIANFAN-1 details
Identifier
60379, 2024-140A
Orbit
LEO
Last TLE update18 hours ago
Origin
Flag of CNYUANX (CN / PRC)
ManufacturerSECM
MissionOperational Commercial Communications
Bus & MotorQIANFAN, Unknown motor
Mass300 kg wet, ~300 kg dry
Launch date (UTC)
2024-08-06 (6 months ago)
Launch vehicle
CHANG ZHENG 6A
Launch site
Taiyaun Space Center, China (TSC)
Object type
Payload
Rocket body
Debris
Shape & HBRBox + 1 Pan, 10 m
Radar Cross Section13.200 m², Large (>1 m²)

Expand to show TLE details & history

TLE from 18 hours ago
0 QIANFAN-1
1 60379U 24140A   25035.54253062  .00000226  00000-0  33125-3 0  9995
2 60379  88.9919 331.3094 0019236  38.2650 321.9862 13.50913336 25337
Epoch: 2025-02-04T13:01Z
Definitive object data (Epoch: 2025-02-04T13:01:14.645Z)
Latitude-0.00003°
Longitude1.05206°
Altitude1,060.575 km
Speed7.327 km/s
True Right ascension22h 05m 14s
True Declination0° 00' 00"
Sunlit
Object was in daylight at TLE epoch
Visualization TLE readout
Latitude43.00264°
Longitude1.91124°
Altitude1,061.082 km
Speed7.332 km/s
Apparent Right ascension21h 37m 27s
Apparent Declination5° 28' 12"
Sunlit
Object is in daylight
Visualization observer readout
Local Sidereal Time09:02:43
Azimuth347.958° N
Elevation-43.914°
Doppler factor1
Orbital elements
Apogee altitude1,080.271 km
Perigee altitude1,051.632 km
Semi-major axis7,444.088 km
Eccentricity0.0019236
Inclination88.9919°
RAAN331.3094°
Arg. of periapsis38.265°
True anomaly321.85019°
Mean anomaly321.9862°
Eccentric anomaly321.91822°
Mean motion3.37929 °/min
BSTAR0.00033125
Orbital period106.53 mins
Loading maneuver chart data...
Loading historical data...
Loading historical data...
Loading historical data...
Loading historical data...
Loading historical data...
Loading historical data...
Loading historical data...

QIANFAN-1 Visibility forecast

Observer location: undefined°, undefined

Span
Click to sort rows by Start time (UTC) header in descending order
Start Az.
Max El. time (UTC)
Max El. Az.
Max El.
End time (UTC)
End Az.
12 mins2025-02-05 07:23:27.526Z12.163° NNE2025-02-05 07:29:27.526Z96.683° ESE38.897°2025-02-05 07:35:27.526Z163.44° S
8 mins2025-02-05 09:11:27.526Z326° NNW2025-02-05 09:15:27.526Z281.316° WNW22.053°2025-02-05 09:19:27.526Z239.43° WSW
11 mins2025-02-05 19:21:27.526Z148.724° SSE2025-02-05 19:26:27.526Z79.353° E36.174°2025-02-05 19:32:27.526Z11.392° NNE
9 mins2025-02-05 21:09:27.526Z235.547° WSW2025-02-05 21:13:27.526Z284.797° WNW24.098°2025-02-05 21:18:27.526Z335.138° NNW
8 mins2025-02-06 06:31:27.526Z36.608° NE2025-02-06 06:35:27.526Z79.984° E21.14°2025-02-06 06:39:27.526Z122.384° SE
|